contact:dominique.lefevre@mio.osupytheas.fr, maurice.libes@osupytheas.fr, didier.mallarino@osupytheas.fr
Project:EMSO http://www.emso-fr.org/EMSO-France
Depth: 2436.0 m
Title:EMSO Ligure Ouest : Data MII capteur CSTAR
DateTime,Latitude,Longitude,Instrument_Serial,Reference_Counts,Signal_Counts,Corrected_Signal_raw_counts,Calculated_Beam_c_inverse_meters,Internal_thermistor_counts
DateTime,Latitude,Longitude,Instrument_Serial,Reference_Counts,Signal_Counts,Corrected_Signal_raw_counts,Calculated_Beam_c_inverse_meters,Internal_thermistor_counts
2023-06-20T00:02:48,42.805,6.029,CST-1368DR,4285,4779,11840,01.107,552
2023-06-20T00:05:49,42.805,6.029,CST-1368DR,4285,4780,11841,01.107,552
2023-06-20T00:08:51,42.805,6.029,CST-1368DR,4285,4779,11838,01.108,552
2023-06-20T00:11:53,42.805,6.029,CST-1368DR,4285,4781,11843,01.106,552
2023-06-20T00:14:54,42.805,6.029,CST-1368DR,4285,4780,11841,01.107,552
2023-06-20T00:17:56,42.805,6.029,CST-1368DR,4285,4780,11840,01.107,552
2023-06-20T00:20:57,42.805,6.029,CST-1368DR,4285,4779,11840,01.107,552
2023-06-20T00:23:59,42.805,6.029,CST-1368DR,4285,4780,11841,01.107,552
2023-06-20T00:27:01,42.805,6.029,CST-1368DR,4285,4780,11840,01.107,552
2023-06-20T00:30:02,42.805,6.029,CST-1368DR,4285,4780,11841,01.107,552
2023-06-20T00:33:04,42.805,6.029,CST-1368DR,4285,4780,11841,01.107,552
2023-06-20T00:36:05,42.805,6.029,CST-1368DR,4285,4779,11838,01.108,552
2023-06-20T00:39:07,42.805,6.029,CST-1368DR,4285,4780,11842,01.107,552
2023-06-20T00:42:08,42.805,6.029,CST-1368DR,4285,4779,11839,01.108,552
2023-06-20T00:45:10,42.805,6.029,CST-1368DR,4285,4780,11840,01.107,552
2023-06-20T00:48:12,42.805,6.029,CST-1368DR,4285,4779,11839,01.108,552
2023-06-20T00:51:13,42.805,6.029,CST-1368DR,4285,4779,11839,01.108,552
2023-06-20T00:54:15,42.805,6.029,CST-1368DR,4285,4779,11840,01.107,552
2023-06-20T00:57:16,42.805,6.029,CST-1368DR,4285,4780,11840,01.107,552
2023-06-20T01:00:18,42.805,6.029,CST-1368DR,4285,4780,11840,01.107,552
2023-06-20T01:03:19,42.805,6.029,CST-1368DR,4285,4780,11841,01.107,552
2023-06-20T01:06:21,42.805,6.029,CST-1368DR,4285,4780,11842,01.107,552
2023-06-20T01:09:23,42.805,6.029,CST-1368DR,4285,4781,11843,01.106,552
2023-06-20T01:12:24,42.805,6.029,CST-1368DR,4285,4780,11841,01.107,552
2023-06-20T01:15:26,42.805,6.029,CST-1368DR,4285,4781,11843,01.106,552
2023-06-20T01:18:27,42.805,6.029,CST-1368DR,4285,4780,11841,01.107,552
2023-06-20T01:21:29,42.805,6.029,CST-1368DR,4285,4781,11843,01.106,552
2023-06-20T01:24:31,42.805,6.029,CST-1368DR,4285,4781,11844,01.106,552
2023-06-20T01:27:32,42.805,6.029,CST-1368DR,4285,4781,11843,01.106,552
2023-06-20T01:30:34,42.805,6.029,CST-1368DR,4285,4781,11845,01.106,552
2023-06-20T01:33:35,42.805,6.029,CST-1368DR,4285,4781,11845,01.106,552
2023-06-20T01:36:37,42.805,6.029,CST-1368DR,4285,4781,11843,01.106,552
2023-06-20T01:39:38,42.805,6.029,CST-1368DR,4285,4781,11843,01.106,552
2023-06-20T01:42:40,42.805,6.029,CST-1368DR,4285,4781,11843,01.106,552
2023-06-20T01:45:42,42.805,6.029,CST-1368DR,4284,4781,11846,01.105,552
2023-06-20T01:48:43,42.805,6.029,CST-1368DR,4285,4781,11843,01.106,552
2023-06-20T01:51:45,42.805,6.029,CST-1368DR,4285,4781,11844,01.106,552
2023-06-20T01:54:46,42.805,6.029,CST-1368DR,4285,4781,11843,01.106,552
2023-06-20T01:57:48,42.805,6.029,CST-1368DR,4285,4780,11842,01.107,552
2023-06-20T02:00:49,42.805,6.029,CST-1368DR,4285,4781,11845,01.106,552
2023-06-20T02:03:51,42.805,6.029,CST-1368DR,4285,4780,11841,01.107,552
2023-06-20T02:06:53,42.805,6.029,CST-1368DR,4284,4781,11847,01.105,552
2023-06-20T02:09:54,42.805,6.029,CST-1368DR,4285,4780,11840,01.107,552
2023-06-20T02:12:56,42.805,6.029,CST-1368DR,4285,4781,11845,01.106,552
2023-06-20T02:15:57,42.805,6.029,CST-1368DR,4285,4781,11845,01.106,552
2023-06-20T02:18:59,42.805,6.029,CST-1368DR,4285,4780,11842,01.107,552
2023-06-20T02:22:01,42.805,6.029,CST-1368DR,4285,4782,11845,01.106,552
2023-06-20T02:25:02,42.805,6.029,CST-1368DR,4285,4782,11847,01.105,552
2023-06-20T02:28:04,42.805,6.029,CST-1368DR,4285,4781,11844,01.106,552
2023-06-20T02:31:05,42.805,6.029,CST-1368DR,4285,4781,11843,01.106,552
2023-06-20T02:34:07,42.805,6.029,CST-1368DR,4285,4781,11844,01.106,552
2023-06-20T02:37:08,42.805,6.029,CST-1368DR,4285,4781,11845,01.106,552
2023-06-20T02:40:10,42.805,6.029,CST-1368DR,4284,4781,11847,01.105,552
2023-06-20T02:43:12,42.805,6.029,CST-1368DR,4285,4781,11845,01.106,552
2023-06-20T02:46:13,42.805,6.029,CST-1368DR,4285,4782,11847,01.105,552
2023-06-20T02:49:15,42.805,6.029,CST-1368DR,4285,4782,11845,01.106,552
2023-06-20T02:52:16,42.805,6.029,CST-1368DR,4285,4783,11848,01.105,552
2023-06-20T02:55:18,42.805,6.029,CST-1368DR,4285,4782,11847,01.105,552
2023-06-20T02:58:19,42.805,6.029,CST-1368DR,4285,4782,11845,01.106,552
2023-06-20T03:01:21,42.805,6.029,CST-1368DR,4285,4783,11848,01.105,552
2023-06-20T03:04:23,42.805,6.029,CST-1368DR,4285,4782,11847,01.105,552
2023-06-20T03:07:24,42.805,6.029,CST-1368DR,4285,4782,11845,01.106,552
2023-06-20T03:10:26,42.805,6.029,CST-1368DR,4284,4782,11850,01.104,552
2023-06-20T03:13:27,42.805,6.029,CST-1368DR,4284,4782,11848,01.105,552
2023-06-20T03:16:29,42.805,6.029,CST-1368DR,4284,4782,11849,01.104,552
2023-06-20T03:19:31,42.805,6.029,CST-1368DR,4284,4782,11849,01.104,552
2023-06-20T03:22:32,42.805,6.029,CST-1368DR,4285,4781,11843,01.106,552
2023-06-20T03:25:34,42.805,6.029,CST-1368DR,4285,4782,11845,01.106,552
2023-06-20T03:28:35,42.805,6.029,CST-1368DR,4285,4781,11845,01.106,552
2023-06-20T03:31:37,42.805,6.029,CST-1368DR,4285,4782,11845,01.106,552
2023-06-20T03:34:38,42.805,6.029,CST-1368DR,4284,4782,11849,01.104,552
2023-06-20T03:37:40,42.805,6.029,CST-1368DR,4285,4782,11846,01.105,552
2023-06-20T03:40:42,42.805,6.029,CST-1368DR,4285,4783,11848,01.105,552
2023-06-20T03:43:43,42.805,6.029,CST-1368DR,4285,4781,11845,01.106,552
2023-06-20T03:46:45,42.805,6.029,CST-1368DR,4284,4782,11848,01.105,552
2023-06-20T03:49:46,42.805,6.029,CST-1368DR,4284,4780,11845,01.106,552
2023-06-20T03:52:48,42.805,6.029,CST-1368DR,4284,4781,11846,01.105,552
2023-06-20T03:55:49,42.805,6.029,CST-1368DR,4285,4782,11845,01.106,552
2023-06-20T03:58:51,42.805,6.029,CST-1368DR,4284,4781,11847,01.105,552
2023-06-20T04:01:53,42.805,6.029,CST-1368DR,4285,4781,11845,01.106,552
2023-06-20T04:04:54,42.805,6.029,CST-1368DR,4284,4781,11847,01.105,552
2023-06-20T04:07:56,42.805,6.029,CST-1368DR,4285,4781,11843,01.106,552
2023-06-20T04:10:57,42.805,6.029,CST-1368DR,4285,4782,11845,01.106,552
2023-06-20T04:13:59,42.805,6.029,CST-1368DR,4285,4782,11846,01.105,552
2023-06-20T04:17:01,42.805,6.029,CST-1368DR,4285,4781,11843,01.106,552
2023-06-20T04:20:02,42.805,6.029,CST-1368DR,4284,4782,11848,01.105,552
2023-06-20T04:23:04,42.805,6.029,CST-1368DR,4284,4782,11849,01.104,552
2023-06-20T04:26:05,42.805,6.029,CST-1368DR,4284,4782,11848,01.105,552
2023-06-20T04:29:07,42.805,6.029,CST-1368DR,4284,4781,11847,01.105,552
2023-06-20T04:32:08,42.805,6.029,CST-1368DR,4285,4782,11846,01.105,552
2023-06-20T04:35:10,42.805,6.029,CST-1368DR,4285,4782,11846,01.105,552
2023-06-20T04:38:12,42.805,6.029,CST-1368DR,4285,4782,11845,01.106,552
2023-06-20T04:41:13,42.805,6.029,CST-1368DR,4284,4781,11847,01.105,552
2023-06-20T04:44:15,42.805,6.029,CST-1368DR,4284,4780,11845,01.106,552
2023-06-20T04:47:16,42.805,6.029,CST-1368DR,4284,4782,11848,01.105,552
2023-06-20T04:50:18,42.805,6.029,CST-1368DR,4284,4781,11846,01.105,552
2023-06-20T04:53:19,42.805,6.029,CST-1368DR,4284,4780,11843,01.106,552
2023-06-20T04:56:21,42.805,6.029,CST-1368DR,4284,4781,11847,01.105,552
2023-06-20T04:59:23,42.805,6.029,CST-1368DR,4284,4781,11847,01.105,552
2023-06-20T05:02:24,42.805,6.029,CST-1368DR,4284,4781,11846,01.105,552
2023-06-20T05:05:26,42.805,6.029,CST-1368DR,4284,4781,11846,01.105,552
2023-06-20T05:08:27,42.805,6.029,CST-1368DR,4284,4781,11847,01.105,552
2023-06-20T05:11:29,42.805,6.029,CST-1368DR,4284,4781,11846,01.105,552
2023-06-20T05:14:31,42.805,6.029,CST-1368DR,4284,4780,11845,01.106,552
2023-06-20T05:17:32,42.805,6.029,CST-1368DR,4284,4781,11847,01.105,552
2023-06-20T05:20:34,42.805,6.029,CST-1368DR,4284,4781,11845,01.106,552
2023-06-20T05:23:35,42.805,6.029,CST-1368DR,4284,4781,11847,01.105,552
2023-06-20T05:26:37,42.805,6.029,CST-1368DR,4284,4782,11848,01.105,552
2023-06-20T05:29:38,42.805,6.029,CST-1368DR,4284,4781,11846,01.105,552
2023-06-20T05:32:40,42.805,6.029,CST-1368DR,4284,4782,11850,01.104,552
2023-06-20T05:35:42,42.805,6.029,CST-1368DR,4284,4781,11847,01.105,552
2023-06-20T05:38:43,42.805,6.029,CST-1368DR,4284,4781,11847,01.105,552
2023-06-20T05:41:45,42.805,6.029,CST-1368DR,4284,4781,11846,01.105,552
2023-06-20T05:44:46,42.805,6.029,CST-1368DR,4284,4781,11845,01.106,552
2023-06-20T05:47:48,42.805,6.029,CST-1368DR,4284,4782,11850,01.104,552
2023-06-20T05:50:49,42.805,6.029,CST-1368DR,4284,4781,11845,01.106,552
2023-06-20T05:53:51,42.805,6.029,CST-1368DR,4284,4782,11849,01.104,552
2023-06-20T05:56:53,42.805,6.029,CST-1368DR,4284,4782,11850,01.104,552
2023-06-20T05:59:54,42.805,6.029,CST-1368DR,4284,4782,11849,01.104,552
2023-06-20T06:02:56,42.805,6.029,CST-1368DR,4284,4781,11847,01.105,552
2023-06-20T06:05:57,42.805,6.029,CST-1368DR,4284,4782,11850,01.104,552
2023-06-20T06:08:59,42.805,6.029,CST-1368DR,4284,4781,11847,01.105,552
2023-06-20T06:12:01,42.805,6.029,CST-1368DR,4284,4781,11846,01.105,552
2023-06-20T06:15:02,42.805,6.029,CST-1368DR,4284,4782,11849,01.104,552
2023-06-20T06:18:04,42.805,6.029,CST-1368DR,4284,4782,11850,01.104,552
2023-06-20T06:21:05,42.805,6.029,CST-1368DR,4284,4782,11849,01.104,552
2023-06-20T06:24:07,42.805,6.029,CST-1368DR,4284,4782,11848,01.105,552
2023-06-20T06:27:08,42.805,6.029,CST-1368DR,4284,4781,11846,01.105,552
2023-06-20T06:30:14,42.805,6.029,CST-1368DR,4284,4782,11849,01.104,552
2023-06-20T06:33:15,42.805,6.029,CST-1368DR,4284,4781,11847,01.105,552
2023-06-20T06:36:17,42.805,6.029,CST-1368DR,4284,4782,11848,01.105,552
2023-06-20T06:39:19,42.805,6.029,CST-1368DR,4284,4782,11850,01.104,552
2023-06-20T06:42:20,42.805,6.029,CST-1368DR,4284,4781,11847,01.105,552
2023-06-20T06:45:22,42.805,6.029,CST-1368DR,4284,4782,11848,01.105,552
2023-06-20T06:48:23,42.805,6.029,CST-1368DR,4284,4782,11850,01.104,552
2023-06-20T06:51:25,42.805,6.029,CST-1368DR,4284,4783,11850,01.104,552
2023-06-20T06:54:26,42.805,6.029,CST-1368DR,4284,4782,11850,01.104,552
2023-06-20T06:57:28,42.805,6.029,CST-1368DR,4284,4782,11849,01.104,552
2023-06-20T07:00:30,42.805,6.029,CST-1368DR,4284,4783,11850,01.104,552
2023-06-20T07:03:31,42.805,6.029,CST-1368DR,4284,4783,11850,01.104,552
2023-06-20T07:06:33,42.805,6.029,CST-1368DR,4284,4781,11846,01.105,552
2023-06-20T07:09:34,42.805,6.029,CST-1368DR,4284,4782,11849,01.104,552
2023-06-20T07:12:36,42.805,6.029,CST-1368DR,4284,4783,11850,01.104,552
2023-06-20T07:15:38,42.805,6.029,CST-1368DR,4284,4782,11849,01.104,552
2023-06-20T07:18:39,42.805,6.029,CST-1368DR,4284,4782,11848,01.105,552
2023-06-20T07:21:41,42.805,6.029,CST-1368DR,4284,4781,11847,01.105,552
2023-06-20T07:24:42,42.805,6.029,CST-1368DR,4284,4782,11850,01.104,552
2023-06-20T07:27:44,42.805,6.029,CST-1368DR,4284,4782,11850,01.104,552
2023-06-20T07:30:45,42.805,6.029,CST-1368DR,4284,4782,11849,01.104,552
2023-06-20T07:33:47,42.805,6.029,CST-1368DR,4284,4782,11848,01.105,552
2023-06-20T07:36:49,42.805,6.029,CST-1368DR,4284,4782,11850,01.104,552
2023-06-20T07:39:50,42.805,6.029,CST-1368DR,4284,4782,11848,01.105,552
2023-06-20T07:42:52,42.805,6.029,CST-1368DR,4284,4781,11847,01.105,552
2023-06-20T07:45:53,42.805,6.029,CST-1368DR,4284,4782,11848,01.105,552
2023-06-20T07:48:55,42.805,6.029,CST-1368DR,4284,4781,11847,01.105,552
2023-06-20T07:51:56,42.805,6.029,CST-1368DR,4284,4782,11850,01.104,552
2023-06-20T07:54:58,42.805,6.029,CST-1368DR,4284,4782,11849,01.104,552
2023-06-20T07:58:00,42.805,6.029,CST-1368DR,4284,4782,11849,01.104,552
2023-06-20T08:01:01,42.805,6.029,CST-1368DR,4284,4782,11848,01.105,552
2023-06-20T08:04:03,42.805,6.029,CST-1368DR,4284,4782,11850,01.104,552
2023-06-20T08:07:04,42.805,6.029,CST-1368DR,4284,4782,11850,01.104,552
2023-06-20T08:10:06,42.805,6.029,CST-1368DR,4284,4782,11850,01.104,552
2023-06-20T08:13:08,42.805,6.029,CST-1368DR,4284,4782,11850,01.104,552
2023-06-20T08:16:09,42.805,6.029,CST-1368DR,4284,4783,11851,01.104,552
2023-06-20T08:19:11,42.805,6.029,CST-1368DR,4284,4782,11850,01.104,552
2023-06-20T08:22:12,42.805,6.029,CST-1368DR,4284,4783,11850,01.104,552
2023-06-20T08:25:14,42.805,6.029,CST-1368DR,4284,4782,11848,01.105,552
2023-06-20T08:28:15,42.805,6.029,CST-1368DR,4284,4783,11850,01.104,552
2023-06-20T08:31:17,42.805,6.029,CST-1368DR,4284,4782,11849,01.104,552
2023-06-20T08:34:18,42.805,6.029,CST-1368DR,4284,4783,11850,01.104,552
2023-06-20T08:37:20,42.805,6.029,CST-1368DR,4284,4783,11850,01.104,552
2023-06-20T08:40:21,42.805,6.029,CST-1368DR,4284,4783,11850,01.104,552
2023-06-20T08:43:23,42.805,6.029,CST-1368DR,4284,4783,11850,01.104,552
2023-06-20T08:46:25,42.805,6.029,CST-1368DR,4284,4783,11850,01.104,552
2023-06-20T08:49:26,42.805,6.029,CST-1368DR,4284,4782,11850,01.104,552
2023-06-20T08:52:28,42.805,6.029,CST-1368DR,4284,4783,11851,01.104,552
2023-06-20T08:55:29,42.805,6.029,CST-1368DR,4284,4783,11851,01.104,552
2023-06-20T08:58:31,42.805,6.029,CST-1368DR,4284,4783,11851,01.104,552
2023-06-20T09:01:32,42.805,6.029,CST-1368DR,4284,4783,11851,01.104,552
2023-06-20T09:04:34,42.805,6.029,CST-1368DR,4284,4782,11848,01.105,552
2023-06-20T09:07:36,42.805,6.029,CST-1368DR,4285,4783,11849,01.104,552
2023-06-20T09:10:37,42.805,6.029,CST-1368DR,4284,4783,11851,01.104,552
2023-06-20T09:13:39,42.805,6.029,CST-1368DR,4284,4783,11851,01.104,552
2023-06-20T09:16:40,42.805,6.029,CST-1368DR,4284,4783,11852,01.103,552
2023-06-20T09:19:42,42.805,6.029,CST-1368DR,4284,4783,11852,01.103,552
2023-06-20T09:22:43,42.805,6.029,CST-1368DR,4284,4783,11850,01.104,552
2023-06-20T09:25:45,42.805,6.029,CST-1368DR,4284,4783,11851,01.104,552
2023-06-20T09:28:47,42.805,6.029,CST-1368DR,4284,4783,11852,01.103,552
2023-06-20T09:31:48,42.805,6.029,CST-1368DR,4284,4783,11852,01.103,552
2023-06-20T09:34:50,42.805,6.029,CST-1368DR,4284,4783,11850,01.104,552
2023-06-20T09:37:51,42.805,6.029,CST-1368DR,4284,4783,11852,01.103,552
2023-06-20T09:40:53,42.805,6.029,CST-1368DR,4284,4784,11853,01.103,552
2023-06-20T09:43:55,42.805,6.029,CST-1368DR,4284,4783,11851,01.104,552
2023-06-20T09:46:56,42.805,6.029,CST-1368DR,4284,4783,11851,01.104,552
2023-06-20T09:49:58,42.805,6.029,CST-1368DR,4284,4784,11853,01.103,552
2023-06-20T09:52:59,42.805,6.029,CST-1368DR,4284,4783,11852,01.103,552
2023-06-20T09:56:01,42.805,6.029,CST-1368DR,4284,4783,11852,01.103,552
2023-06-20T09:59:02,42.805,6.029,CST-1368DR,4284,4783,11852,01.103,552
2023-06-20T10:02:04,42.805,6.029,CST-1368DR,4285,4784,11851,01.104,552
2023-06-20T10:05:06,42.805,6.029,CST-1368DR,4284,4784,11853,01.103,552
2023-06-20T10:08:07,42.805,6.029,CST-1368DR,4284,4783,11852,01.103,552
2023-06-20T10:11:09,42.805,6.029,CST-1368DR,4284,4783,11852,01.103,552
2023-06-20T10:14:10,42.805,6.029,CST-1368DR,4284,4783,11852,01.103,552
2023-06-20T10:17:12,42.805,6.029,CST-1368DR,4284,4783,11852,01.103,552
2023-06-20T10:20:14,42.805,6.029,CST-1368DR,4284,4781,11847,01.105,552
2023-06-20T10:23:15,42.805,6.029,CST-1368DR,4284,4784,11854,01.103,552
2023-06-20T10:26:17,42.805,6.029,CST-1368DR,4284,4784,11853,01.103,552
2023-06-20T10:29:18,42.805,6.029,CST-1368DR,4284,4783,11852,01.103,552
2023-06-20T10:32:20,42.805,6.029,CST-1368DR,4284,4782,11850,01.104,552
2023-06-20T10:35:21,42.805,6.029,CST-1368DR,4284,4784,11853,01.103,552
2023-06-20T10:38:23,42.805,6.029,CST-1368DR,4284,4783,11851,01.104,552
2023-06-20T10:41:25,42.805,6.029,CST-1368DR,4284,4782,11850,01.104,552
2023-06-20T10:44:26,42.805,6.029,CST-1368DR,4284,4783,11850,01.104,552
2023-06-20T10:47:28,42.805,6.029,CST-1368DR,4284,4783,11852,01.103,552
2023-06-20T10:50:29,42.805,6.029,CST-1368DR,4284,4783,11852,01.103,552
2023-06-20T10:53:31,42.805,6.029,CST-1368DR,4284,4783,11852,01.103,552
2023-06-20T10:56:32,42.805,6.029,CST-1368DR,4285,4784,11852,01.103,552
2023-06-20T10:59:34,42.805,6.029,CST-1368DR,4284,4783,11852,01.103,552
2023-06-20T11:02:36,42.805,6.029,CST-1368DR,4284,4783,11852,01.103,552
2023-06-20T11:05:37,42.805,6.029,CST-1368DR,4284,4782,11850,01.104,552
2023-06-20T11:08:39,42.805,6.029,CST-1368DR,4284,4783,11852,01.103,552
2023-06-20T11:11:40,42.805,6.029,CST-1368DR,4284,4783,11852,01.103,552
2023-06-20T11:14:42,42.805,6.029,CST-1368DR,4284,4783,11852,01.103,552
2023-06-20T11:17:44,42.805,6.029,CST-1368DR,4284,4783,11851,01.104,552
2023-06-20T11:20:45,42.805,6.029,CST-1368DR,4284,4783,11852,01.103,552
2023-06-20T11:23:47,42.805,6.029,CST-1368DR,4284,4783,11851,01.104,552
2023-06-20T11:26:48,42.805,6.029,CST-1368DR,4284,4782,11849,01.104,552
2023-06-20T11:29:50,42.805,6.029,CST-1368DR,4284,4783,11851,01.104,552
2023-06-20T11:32:51,42.805,6.029,CST-1368DR,4284,4783,11850,01.104,552
2023-06-20T11:35:53,42.805,6.029,CST-1368DR,4284,4783,11850,01.104,552
2023-06-20T11:38:55,42.805,6.029,CST-1368DR,4284,4779,11841,01.107,552
2023-06-20T11:41:56,42.805,6.029,CST-1368DR,4284,4782,11849,01.104,552
2023-06-20T11:44:58,42.805,6.029,CST-1368DR,4284,4782,11850,01.104,552
2023-06-20T11:47:59,42.805,6.029,CST-1368DR,4284,4782,11849,01.104,552
2023-06-20T11:51:01,42.805,6.029,CST-1368DR,4284,4782,11849,01.104,552
2023-06-20T11:54:02,42.805,6.029,CST-1368DR,4284,4781,11847,01.105,552
2023-06-20T11:57:04,42.805,6.029,CST-1368DR,4284,4782,11849,01.104,552
2023-06-20T12:00:06,42.805,6.029,CST-1368DR,4284,4782,11849,01.104,552
2023-06-20T12:03:07,42.805,6.029,CST-1368DR,4284,4781,11847,01.105,552
2023-06-20T12:06:09,42.805,6.029,CST-1368DR,4284,4781,11847,01.105,552
2023-06-20T12:09:10,42.805,6.029,CST-1368DR,4284,4781,11847,01.105,552
2023-06-20T12:12:12,42.805,6.029,CST-1368DR,4284,4781,11846,01.105,552
2023-06-20T12:15:13,42.805,6.029,CST-1368DR,4284,4782,11850,01.104,552
2023-06-20T12:18:15,42.805,6.029,CST-1368DR,4284,4782,11849,01.104,552
2023-06-20T12:21:17,42.805,6.029,CST-1368DR,4284,4782,11850,01.104,552
2023-06-20T12:24:18,42.805,6.029,CST-1368DR,4284,4781,11847,01.105,552
2023-06-20T12:27:20,42.805,6.029,CST-1368DR,4284,4781,11847,01.105,552
2023-06-20T12:30:22,42.805,6.029,CST-1368DR,4284,4782,11849,01.104,552
2023-06-20T12:33:24,42.805,6.029,CST-1368DR,4284,4782,11848,01.105,552
2023-06-20T12:36:25,42.805,6.029,CST-1368DR,4284,4782,11848,01.105,552
2023-06-20T12:39:27,42.805,6.029,CST-1368DR,4284,4783,11850,01.104,552
2023-06-20T12:42:28,42.805,6.029,CST-1368DR,4284,4782,11849,01.104,552
2023-06-20T12:45:30,42.805,6.029,CST-1368DR,4284,4782,11848,01.105,552
2023-06-20T12:48:32,42.805,6.029,CST-1368DR,4284,4781,11847,01.105,552
2023-06-20T12:51:33,42.805,6.029,CST-1368DR,4284,4782,11849,01.104,552
2023-06-20T12:54:35,42.805,6.029,CST-1368DR,4284,4782,11850,01.104,552
2023-06-20T12:57:36,42.805,6.029,CST-1368DR,4284,4782,11848,01.105,552
2023-06-20T13:00:38,42.805,6.029,CST-1368DR,4284,4782,11848,01.105,552
2023-06-20T13:03:39,42.805,6.029,CST-1368DR,4284,4782,11850,01.104,552
2023-06-20T13:06:41,42.805,6.029,CST-1368DR,4284,4782,11849,01.104,552
2023-06-20T13:09:43,42.805,6.029,CST-1368DR,4284,4782,11849,01.104,552
2023-06-20T13:12:44,42.805,6.029,CST-1368DR,4284,4781,11846,01.105,552
2023-06-20T13:15:46,42.805,6.029,CST-1368DR,4284,4783,11851,01.104,552
2023-06-20T13:18:47,42.805,6.029,CST-1368DR,4284,4782,11848,01.105,552
2023-06-20T13:21:49,42.805,6.029,CST-1368DR,4284,4782,11849,01.104,552
2023-06-20T13:24:50,42.805,6.029,CST-1368DR,4284,4783,11852,01.103,552
2023-06-20T13:27:52,42.805,6.029,CST-1368DR,4284,4783,11850,01.104,552
2023-06-20T13:30:54,42.805,6.029,CST-1368DR,4284,4781,11847,01.105,552
2023-06-20T13:33:55,42.805,6.029,CST-1368DR,4284,4783,11852,01.103,552
2023-06-20T13:36:57,42.805,6.029,CST-1368DR,4284,4781,11847,01.105,552
2023-06-20T13:39:58,42.805,6.029,CST-1368DR,4284,4783,11850,01.104,552
2023-06-20T13:43:00,42.805,6.029,CST-1368DR,4284,4781,11847,01.105,552
2023-06-20T13:46:01,42.805,6.029,CST-1368DR,4284,4781,11847,01.105,552
2023-06-20T13:49:03,42.805,6.029,CST-1368DR,4284,4782,11849,01.104,552
2023-06-20T13:52:05,42.805,6.029,CST-1368DR,4284,4782,11850,01.104,552
2023-06-20T13:55:06,42.805,6.029,CST-1368DR,4284,4780,11845,01.106,552
2023-06-20T13:58:08,42.805,6.029,CST-1368DR,4284,4781,11847,01.105,552
2023-06-20T14:01:09,42.805,6.029,CST-1368DR,4284,4783,11850,01.104,552
2023-06-20T14:04:11,42.805,6.029,CST-1368DR,4284,4782,11849,01.104,552
2023-06-20T14:07:13,42.805,6.029,CST-1368DR,4284,4782,11849,01.104,552
2023-06-20T14:10:14,42.805,6.029,CST-1368DR,4284,4782,11848,01.105,552
2023-06-20T14:13:16,42.805,6.029,CST-1368DR,4284,4783,11850,01.104,552
2023-06-20T14:16:17,42.805,6.029,CST-1368DR,4284,4783,11850,01.104,552
2023-06-20T14:19:19,42.805,6.029,CST-1368DR,4284,4782,11850,01.104,552
2023-06-20T14:22:20,42.805,6.029,CST-1368DR,4284,4783,11850,01.104,552
2023-06-20T14:25:22,42.805,6.029,CST-1368DR,4284,4782,11848,01.105,552
2023-06-20T14:28:24,42.805,6.029,CST-1368DR,4284,4783,11850,01.104,552
2023-06-20T14:31:26,42.805,6.029,CST-1368DR,4284,4781,11847,01.105,552
2023-06-20T14:34:27,42.805,6.029,CST-1368DR,4284,4783,11850,01.104,552
2023-06-20T14:37:29,42.805,6.029,CST-1368DR,4284,4781,11847,01.105,552
2023-06-20T14:40:31,42.805,6.029,CST-1368DR,4284,4782,11848,01.105,552
2023-06-20T14:43:32,42.805,6.029,CST-1368DR,4284,4782,11849,01.104,552
2023-06-20T14:46:34,42.805,6.029,CST-1368DR,4284,4783,11850,01.104,552
2023-06-20T14:49:35,42.805,6.029,CST-1368DR,4284,4783,11850,01.104,552
2023-06-20T14:52:37,42.805,6.029,CST-1368DR,4284,4782,11848,01.105,552
2023-06-20T14:55:39,42.805,6.029,CST-1368DR,4284,4782,11850,01.104,552
2023-06-20T14:58:40,42.805,6.029,CST-1368DR,4284,4782,11849,01.104,552
2023-06-20T15:01:42,42.805,6.029,CST-1368DR,4284,4781,11847,01.105,552
2023-06-20T15:04:43,42.805,6.029,CST-1368DR,4284,4782,11849,01.104,552
2023-06-20T15:07:45,42.805,6.029,CST-1368DR,4284,4783,11852,01.103,552
2023-06-20T15:10:46,42.805,6.029,CST-1368DR,4284,4782,11849,01.104,552
2023-06-20T15:13:48,42.805,6.029,CST-1368DR,4284,4782,11850,01.104,552
2023-06-20T15:16:50,42.805,6.029,CST-1368DR,4284,4783,11851,01.104,552
2023-06-20T15:19:51,42.805,6.029,CST-1368DR,4284,4782,11850,01.104,552
2023-06-20T15:22:53,42.805,6.029,CST-1368DR,4284,4782,11850,01.104,552
2023-06-20T15:25:54,42.805,6.029,CST-1368DR,4284,4783,11850,01.104,552
2023-06-20T15:28:56,42.805,6.029,CST-1368DR,4284,4782,11850,01.104,552
2023-06-20T15:31:58,42.805,6.029,CST-1368DR,4284,4783,11850,01.104,552
2023-06-20T15:34:59,42.805,6.029,CST-1368DR,4284,4781,11847,01.105,552
2023-06-20T15:38:01,42.805,6.029,CST-1368DR,4284,4782,11848,01.105,552
2023-06-20T15:41:02,42.805,6.029,CST-1368DR,4284,4783,11850,01.104,552
2023-06-20T15:44:04,42.805,6.029,CST-1368DR,4284,4781,11847,01.105,552
2023-06-20T15:47:05,42.805,6.029,CST-1368DR,4284,4782,11849,01.104,552
2023-06-20T15:50:07,42.805,6.029,CST-1368DR,4284,4782,11849,01.104,552
2023-06-20T15:53:09,42.805,6.029,CST-1368DR,4284,4782,11850,01.104,552
2023-06-20T15:56:10,42.805,6.029,CST-1368DR,4284,4783,11850,01.104,552
2023-06-20T15:59:12,42.805,6.029,CST-1368DR,4284,4782,11850,01.104,552
2023-06-20T16:02:13,42.805,6.029,CST-1368DR,4284,4783,11850,01.104,552
2023-06-20T16:05:15,42.805,6.029,CST-1368DR,4284,4782,11850,01.104,552
2023-06-20T16:08:16,42.805,6.029,CST-1368DR,4284,4782,11850,01.104,552
2023-06-20T16:11:18,42.805,6.029,CST-1368DR,4284,4782,11850,01.104,552
2023-06-20T16:14:20,42.805,6.029,CST-1368DR,4284,4782,11850,01.104,552
2023-06-20T16:17:21,42.805,6.029,CST-1368DR,4284,4783,11851,01.104,552
2023-06-20T16:20:23,42.805,6.029,CST-1368DR,4284,4783,11851,01.104,552
2023-06-20T16:23:24,42.805,6.029,CST-1368DR,4284,4782,11848,01.105,552
2023-06-20T16:26:26,42.805,6.029,CST-1368DR,4284,4783,11851,01.104,552
2023-06-20T16:29:28,42.805,6.029,CST-1368DR,4284,4783,11850,01.104,552
2023-06-20T16:32:29,42.805,6.029,CST-1368DR,4284,4783,11850,01.104,552
2023-06-20T16:35:30,42.805,6.029,CST-1368DR,4284,4783,11850,01.104,552
2023-06-20T16:38:32,42.805,6.029,CST-1368DR,4284,4782,11848,01.105,552